This demonstration page uses our WeatherBlox Daily Observations layout. Learn more.

Left ArrowRight Arrow

Hourly Observations for June 12, 2020

Temp ( °F °C ) Dew Point ( °F °C ) Humidity (%) Winds ( mph kmh ) Pressure ( in mb ) Visibility ( mi km ) Precip ( " mm )
12:53 am 00:53 Clear 69 20.6 57 13.9 66 66 NNW 5 7 30.11 1020 10 16 0.00 0.00
1:53 am 01:53 Clear 68 20 57 13.9 68 68 Calm 30.11 1020 10 16 0.00 0.00
2:53 am 02:53 Clear 67 19.4 57 13.9 71 71 Calm 30.10 1019 10 16 0.00 0.00
3:53 am 03:53 Clear 66 18.9 58 14.4 75 75 NE 3 6 30.10 1019 10 16 0.00 0.00
4:53 am 04:53 Clear 64 17.8 58 14.4 81 81 Calm 30.10 1019 10 16 0.00 0.00
5:53 am 05:53 Clear 62 16.7 58 14.4 86 86 Calm 30.11 1020 10 16 0.00 0.00
6:53 am 06:53 Mostly Cloudy 64 17.8 58 14.4 81 81 Calm 30.13 1020 10 16 0.00 0.00
7:53 am 07:53 Mostly Cloudy 67 19.4 59 15 76 76 Calm 30.14 1021 10 16 0.00 0.00
8:53 am 08:53 Partly Cloudy 73 22.8 62 16.7 69 69 NE 7 11 30.14 1021 10 16 0.00 0.00
9:53 am 09:53 Mostly Sunny 77 25 60 15.6 56 56 ENE 12 19 30.14 1021 10 16 0.00 0.00
10:53 am 10:53 Sunny 79 26.1 61 16.1 54 54 E 9 15 30.14 1021 10 16 0.00 0.00
11:53 am 11:53 Sunny 81 27.2 61 16.1 51 51 ESE 8 13 30.14 1021 10 16 0.00 0.00
12:53 pm 12:53 Mostly Sunny 83 28.3 62 16.7 49 49 undefined N/A 30.13 1020 10 16 0.00 0.00
1:53 pm 13:53 Mostly Sunny 85 29.4 64 17.8 50 50 VRB 6 9 30.11 1020 10 16 0.00 0.00
2:53 pm 14:53 Partly Cloudy 85 29.4 62 16.7 46 46 ENE 10 17 30.09 1019 10 16 0.00 0.00
3:53 pm 15:53 Mostly Sunny 86 30 62 16.7 45 45 NE 7 11 30.07 1018 10 16 0.00 0.00
4:53 pm 16:53 Mostly Sunny 86 30 61 16.1 43 43 NNE 10 17 30.05 1018 10 16 0.00 0.00
5:53 pm 17:53 Partly Cloudy 85 29.4 64 17.8 50 50 N 7 11 30.04 1017 10 16 0.00 0.00
6:53 pm 18:53 Mostly Cloudy 83 28.3 62 16.7 49 49 NNW 10 17 30.04 1017 10 16 0.00 0.00
7:53 pm 19:53 Cloudy 81 27.2 58 14.4 45 45 NNW 8 13 30.05 1018 10 16 0.00 0.00
8:53 pm 20:53 Mostly Cloudy 79 26.1 55 12.8 44 44 NNW 7 11 30.06 1018 10 16 0.00 0.00
9:53 pm 21:53 Cloudy 78 25.6 60 15.6 54 54 ENE 6 9 30.07 1018 10 16 0.00 0.00
10:53 pm 22:53 Mostly Cloudy 78 25.6 61 16.1 56 56 E 3 6 30.07 1018 10 16 0.00 0.00
11:53 pm 23:53 Cloudy 72 22.2 65 18.3 79 79 N 3 6 30.06 1018 10 16 0.00 0.00

Powered by AerisWeather